TimeCST,TemperatureF,Dew PointF,Humidity,Sea Level PressureIn,VisibilityMPH,Wind Direction,Wind SpeedMPH,Gust SpeedMPH,PrecipitationIn,Events,Conditions,WindDirDegrees,DateUTC
12:15 AM,29.3,23.5,79,30.00,10.0,ENE,10.4,-,N/A,,Overcast,70,2013-03-05 06:15:00
12:35 AM,29.3,23.5,79,30.00,10.0,ENE,9.2,-,N/A,,Overcast,70,2013-03-05 06:35:00
12:55 AM,29.3,23.7,80,30.00,10.0,ENE,9.2,-,N/A,,Overcast,70,2013-03-05 06:55:00
1:15 AM,29.3,23.9,80,30.00,10.0,East,8.1,-,N/A,,Overcast,80,2013-03-05 07:15:00
1:35 AM,29.3,23.9,80,29.99,10.0,ENE,9.2,-,N/A,,Overcast,70,2013-03-05 07:35:00
1:55 AM,29.7,23.9,79,29.98,10.0,ENE,10.4,-,N/A,,Overcast,70,2013-03-05 07:55:00
2:15 AM,29.7,23.9,79,29.97,10.0,ENE,9.2,-,N/A,,Overcast,70,2013-03-05 08:15:00
2:35 AM,29.7,24.3,80,29.97,10.0,ENE,8.1,-,N/A,,Overcast,70,2013-03-05 08:35:00
2:55 AM,29.7,24.4,81,29.95,10.0,ENE,8.1,-,N/A,,Overcast,70,2013-03-05 08:55:00
3:15 AM,29.8,24.6,81,29.94,10.0,ENE,10.4,-,N/A,,Overcast,70,2013-03-05 09:15:00
3:35 AM,30.0,24.6,80,29.94,10.0,ENE,6.9,-,N/A,,Overcast,70,2013-03-05 09:35:00
3:55 AM,30.2,24.8,80,29.93,10.0,ENE,5.8,-,N/A,,Overcast,60,2013-03-05 09:55:00
4:15 AM,30.2,24.8,80,29.93,10.0,ENE,8.1,-,N/A,,Overcast,60,2013-03-05 10:15:00
4:35 AM,30.2,24.8,80,29.93,10.0,ENE,9.2,-,N/A,,Overcast,60,2013-03-05 10:35:00
4:55 AM,30.0,25.2,82,29.93,10.0,NE,8.1,-,N/A,,Overcast,50,2013-03-05 10:55:00
5:15 AM,29.8,25.2,83,29.93,10.0,NE,8.1,-,N/A,,Overcast,50,2013-03-05 11:15:00
5:35 AM,29.7,25.3,84,29.92,10.0,NE,5.8,-,N/A,,Overcast,50,2013-03-05 11:35:00
5:55 AM,29.7,25.2,83,29.91,10.0,ENE,6.9,-,N/A,,Overcast,60,2013-03-05 11:55:00
6:15 AM,29.7,25.2,83,29.91,4.0,ENE,5.8,-,N/A,,Overcast,60,2013-03-05 12:15:00
6:35 AM,29.3,25.5,86,29.92,1.8,NE,4.6,-,N/A,,Overcast,50,2013-03-05 12:35:00
7:15 AM,29.3,27.5,93,29.92,1.5,NE,6.9,-,N/A,,Overcast,40,2013-03-05 13:15:00
7:35 AM,29.3,28.0,95,29.93,0.8,NE,6.9,-,0.01,,Overcast,50,2013-03-05 13:35:00
7:55 AM,29.3,28.2,96,29.93,0.5,NE,5.8,-,0.02,,Overcast,50,2013-03-05 13:55:00
8:15 AM,29.3,28.2,96,29.93,0.5,NE,6.9,-,0.01,,Overcast,40,2013-03-05 14:15:00
8:35 AM,29.3,28.0,95,29.93,1.0,NE,11.5,-,0.02,,Overcast,40,2013-03-05 14:35:00
8:55 AM,29.8,28.4,94,29.92,1.0,NE,10.4,-,0.02,,Overcast,50,2013-03-05 14:55:00
9:15 AM,30.0,28.4,94,29.92,1.8,NE,9.2,-,N/A,,Overcast,50,2013-03-05 15:15:00
9:35 AM,30.2,28.4,93,29.91,1.8,NE,11.5,-,0.01,,Overcast,40,2013-03-05 15:35:00
9:55 AM,30.6,28.4,92,29.91,1.2,NE,11.5,-,0.01,,Overcast,40,2013-03-05 15:55:00
10:15 AM,30.2,28.2,92,29.91,1.0,NNE,11.5,-,N/A,,Overcast,30,2013-03-05 16:15:00
10:35 AM,30.2,28.0,92,29.90,1.8,NE,13.8,-,N/A,,Overcast,50,2013-03-05 16:35:00
10:55 AM,30.2,27.9,91,29.89,1.2,NE,12.7,-,N/A,,Overcast,50,2013-03-05 16:55:00
11:15 AM,30.2,27.7,90,29.88,1.0,NE,15.0,-,N/A,,Overcast,50,2013-03-05 17:15:00
11:35 AM,30.2,27.9,91,29.88,0.8,NE,13.8,18.4,N/A,,Overcast,50,2013-03-05 17:35:00
11:55 AM,30.2,27.3,89,29.88,0.8,NE,12.7,19.6,N/A,,Overcast,50,2013-03-05 17:55:00
12:15 PM,30.2,27.5,90,29.88,1.0,NE,13.8,18.4,N/A,,Overcast,50,2013-03-05 18:15:00
12:35 PM,30.2,27.9,91,29.88,0.8,NE,10.4,-,N/A,,Overcast,40,2013-03-05 18:35:00
12:55 PM,30.2,27.5,90,29.88,1.5,NE,12.7,-,N/A,,Overcast,40,2013-03-05 18:55:00
1:15 PM,30.2,27.5,90,29.88,1.8,NE,11.5,17.3,N/A,,Overcast,40,2013-03-05 19:15:00
1:35 PM,30.2,27.5,90,29.88,1.8,NE,12.7,18.4,N/A,,Overcast,40,2013-03-05 19:35:00
1:55 PM,30.2,27.3,89,29.88,1.8,NNE,15.0,-,N/A,,Overcast,30,2013-03-05 19:55:00
2:15 PM,29.8,27.1,90,29.89,1.8,NE,11.5,-,N/A,,Overcast,40,2013-03-05 20:15:00
2:35 PM,29.7,27.3,91,29.89,0.5,NNE,12.7,-,N/A,,Overcast,20,2013-03-05 20:35:00
2:55 PM,29.5,25.9,86,29.90,1.0,NNE,16.1,-,N/A,,Overcast,30,2013-03-05 20:55:00
3:15 PM,29.3,26.1,88,29.90,1.0,NNE,15.0,-,N/A,,Overcast,20,2013-03-05 21:15:00
3:35 PM,29.3,26.2,88,29.91,1.5,NNE,15.0,-,N/A,,Overcast,20,2013-03-05 21:35:00
3:55 PM,28.9,25.3,86,29.92,1.5,NNE,15.0,-,N/A,,Overcast,30,2013-03-05 21:55:00
4:15 PM,29.3,26.2,88,29.93,1.5,NNE,12.7,17.3,N/A,,Overcast,20,2013-03-05 22:15:00
4:35 PM,29.3,26.4,89,29.94,1.2,NNE,13.8,-,N/A,,Overcast,20,2013-03-05 22:35:00
4:55 PM,29.1,26.4,90,29.95,1.0,NNE,18.4,21.9,N/A,,Overcast,20,2013-03-05 22:55:00
5:15 PM,28.4,25.7,90,29.97,1.8,NNE,17.3,-,N/A,,Overcast,20,2013-03-05 23:15:00
5:35 PM,28.4,26.2,92,29.97,0.8,North,12.7,-,N/A,,Overcast,10,2013-03-05 23:35:00
5:55 PM,28.4,26.1,91,29.98,1.0,North,15.0,-,N/A,,Overcast,10,2013-03-05 23:55:00
6:15 PM,28.4,25.3,88,30.00,1.5,North,15.0,-,N/A,,Overcast,10,2013-03-06 00:15:00
6:35 PM,28.4,24.8,86,30.00,3.0,North,13.8,-,N/A,,Overcast,10,2013-03-06 00:35:00
6:55 PM,28.4,25.5,89,30.01,3.0,North,12.7,17.3,N/A,,Overcast,360,2013-03-06 00:55:00
7:15 PM,28.4,25.7,90,30.01,3.0,North,12.7,-,N/A,,Overcast,10,2013-03-06 01:15:00
7:35 PM,28.8,25.0,86,30.02,4.0,North,10.4,13.8,N/A,,Overcast,10,2013-03-06 01:35:00
7:55 PM,28.4,24.8,86,30.03,7.0,North,12.7,-,N/A,,Overcast,10,2013-03-06 01:55:00
8:15 PM,28.4,24.4,85,30.03,10.0,North,9.2,-,N/A,,Overcast,360,2013-03-06 02:15:00
8:35 PM,27.7,23.9,86,30.04,7.0,North,11.5,-,N/A,,Overcast,360,2013-03-06 02:35:00
8:55 PM,27.3,23.4,85,30.05,10.0,North,11.5,-,N/A,,Mostly Cloudy,360,2013-03-06 02:55:00
9:15 PM,27.3,23.0,84,30.05,10.0,North,12.7,-,N/A,,Scattered Clouds,360,2013-03-06 03:15:00
9:35 PM,27.5,23.0,83,30.06,10.0,North,11.5,-,N/A,,Overcast,350,2013-03-06 03:35:00
9:55 PM,27.5,23.0,83,30.07,10.0,NNW,10.4,-,N/A,,Overcast,330,2013-03-06 03:55:00
10:15 PM,27.5,22.6,82,30.07,10.0,NNW,10.4,-,N/A,,Overcast,330,2013-03-06 04:15:00
10:35 PM,27.0,22.1,82,30.08,10.0,NNW,11.5,-,N/A,,Overcast,330,2013-03-06 04:35:00
10:55 PM,26.6,22.5,84,30.08,10.0,NNW,11.5,-,N/A,,Overcast,330,2013-03-06 04:55:00
11:15 PM,27.3,23.4,85,30.09,10.0,NNW,12.7,-,N/A,,Overcast,330,2013-03-06 05:15:00
11:35 PM,27.5,23.2,84,30.09,10.0,NNW,11.5,-,N/A,,Overcast,330,2013-03-06 05:35:00
11:55 PM,28.0,23.0,81,30.10,10.0,NNW,12.7,-,N/A,,Overcast,340,2013-03-06 05:55:00